Regional Weather Roundup
Issued by NWS Kansas City/Pleasant Hill, MO

Home | Current Version | Previous Version | Graphics & Text | Print | Product List | Glossary Off
Versions: 1 2 3 4 5 6 7 8 9 10 11 12 13 14 15 16 17 18 19 20 21 22 23 24 25 26 27 28 29 30 31 32 33 34 35 36 37 38 39 40 41 42 43 44 45 46 47 48 49 50

000
ASUS43 KEAX 222211
RWREAX

WEATHER ROUNDUP FOR EASTERN KANSAS AND NORTHWEST MISSOURI
NATIONAL WEATHER SERVICE KANSAS CITY/PLEASANT HILL MO
500 PM CDT TUE JUL 22 2014

KSZ040-057-103>105-MOZ028-029-037-043-222300-
...KANSAS CITY METROPOLITAN AREA...

CITY           SKY/WX    TMP DP  RH WIND       PRES   REMARKS
K.C. INTL      MOSUNNY   95  76  53 SW8       30.00S HX 108
K.C. DOWNTOWN  MOSUNNY   99  70  38 W9        29.97F HX 106
LEES SUMMIT    PTSUNNY   95  74  50 SW9       30.00F HX 105
OLATHE - IXD   MOSUNNY   99  71  40 SW13      30.01F HX 107
OLATHE - OJC   MOSUNNY   95  74  50 S10       30.00F HX 105
LAWRENCE       MOSUNNY   99  72  41 SW13      29.99S HX 108

$$

MOZ001>008-011>017-020>025-030>033-038>040-044>046-053-054-222300-
...NORTHERN AND CENTRAL MISSOURI...

CITY           SKY/WX    TMP DP  RH WIND       PRES   REMARKS
ST. JOSEPH     SUNNY     94  79  61 W7        30.00R HX 111
MOSBY          PTCLDY    95  73  49 S5        29.98F HX 105
WARRENSBURG    PTSUNNY   90  77  66 S6        30.00F HX 102
WHITEMAN AFB   NOT AVBL
CLINTON        PTSUNNY   91  81  70 CALM      30.01F HX 110
SEDALIA        PTSUNNY   93  78  61 S8        30.01S HX 108
WARSAW         NOT AVBL
MARSHALL       PTSUNNY   93  81  66 SW6       29.99F HAZE    HX 113
CHILLICOTHE      N/A     94  80  64 VRB6      29.99S HX 113
MOBERLY        PTSUNNY   90  77  66 SW7       29.99S HX 102
KIRKSVILLE     PTSUNNY   90  78  68 W7        30.01R HX 104

$$

MOZ041-047>049-056>058-063>065-088>090-097-222300-
...EASTERN AND SOUTHERN MISSOURI...

CITY           SKY/WX    TMP DP  RH WIND       PRES   REMARKS
ST. LOUIS INTL PTSUNNY   93  73  52 SW9       30.00F HX 102
SPIRIT OF STL  PTSUNNY   90  73  57 SE5       29.99S HX  98
COLUMBIA       MOSUNNY   94  77  57 SW13      29.99F HX 108
JEFFERSON CITY MOSUNNY   92  77  61 SW9       29.97F HX 105
MEXICO         MOSUNNY   93  82  70 SW6       29.98S HX 117
HANNIBAL       PTSUNNY   90  77  66 CALM      30.00S HAZE    HX 102
ROLLA          PTSUNNY   93  71  48 SW10      30.01F HX 100
LEBANON        MOSUNNY   93  72  49 S7        30.05F HX 100
OSAGE BEACH    MOSUNNY   93  75  55 SW8       30.01S HX 104
SPRINGFIELD    MOSUNNY   93  74  53 W7        30.05F HX 103
BRANSON        PTSUNNY   99  70  39 NW5       30.08F HX 105
NEVADA         MOSUNNY   91  77  62 SW6       30.03F HX 105
JOPLIN         PTSUNNY   95  74  50 SW8       30.05F HX 105
WEST PLAINS    MOSUNNY   86  71  60 SE7       30.09F HX  91
MALDEN         SUNNY     90  68  48 S6        30.04F HX  93

$$

IAZ060-094-KSZ022-034>040-054-083-096-NEZ052-066-093-222300-
...KANSAS...SOUTHEAST NEBRASKA AND IOWA...

CITY           SKY/WX    TMP DP  RH WIND       PRES   REMARKS
TOPEKA         SUNNY    103  66  30 W9        29.99S HX 107
MANHATTAN      SUNNY    103  66  30 W7        30.00S HX 107
EMPORIA        MOSUNNY  100  68  35 VRB7      30.02F HX 105
CHANUTE        SUNNY     97  73  45 SW7       30.03F HX 107
WICHITA        MOSUNNY   97  71  42 S10       30.04S HX 104
OMAHA          MOSUNNY   90  69  50 NE14      30.06S HX  94
LINCOLN        SUNNY     93  67  42 N15       30.09R HX  96
FALLS CITY     SUNNY     95  79  59 N9        30.00S HX 112
LAMONI         MOSUNNY   91  79  67 NW8       30.01F HX 107
DES MOINES     MOSUNNY   91  74  57 N12       30.01S HX 100

$$



USA.gov is the U.S. government's official web portal to all federal, state and local government web resources and services.